Regional Weather Roundup
Issued by NWS Wakefield, VA

Home | Current Version | Previous Version | Text Only | Print | Product List | Glossary On
Versions: 1 2 3 4 5 6 7 8 9 10 11 12 13 14 15 16 17 18 19 20 21 22 23 24 25 26 27 28 29 30 31 32 33 34 35 36 37 38 39 40 41 42 43 44 45 46 47 48 49 50
000
ASUS41 KAKQ 280615
RWRAKQ

REGIONAL WEATHER ROUNDUP
NATIONAL WEATHER SERVICE WAKEFIELD VA
200 AM EDT TUE JUL 28 2015

Note: "fair" indicates few or no clouds below 12,000 feet with no
significant weather and/or obstructions to visibility. * = Denotes
station may not report precipitation (e.g., rain,snow,etc.),
thunder or fog.

VAZ042-051-052>054-056-280700-
NORTHERN VIRGINIA

CITY           SKY/WX    TMP DP  RH WIND       PRES   REMARKS
WASH NATIONAL  PTCLDY    77  72  84 S6        30.01F
DULLES         PTCLDY    71  70  96 CALM      30.02S
FORT BELVOIR   PTCLDY    72  70  94 CALM      30.01S
QUANTICO       PTCLDY    75  67  76 CALM      30.01F
FREDERICKSBRG* CLEAR     72  71  98 CALM      30.01S
STAFFORD*      CLEAR     69  67  94 CALM      30.05F
WARRENTON      CLEAR     69  69 100 CALM      30.01S FOG
CULPEPER*      CLEAR     68  68  99 CALM      30.03S
MANASSAS*      CLEAR     72  72 100 CALM      30.01F
LEESBURG*      CLEAR     72  72 100 W7        30.03S
WINCHESTER     CLEAR     70  70 100 CALM      30.03S FOG
FRONT ROYAL*   MOCLDY    68  68 100 CALM      30.03R
LURAY*         FAIR      70  70 100 CALM      30.04S FOG
$$

VAZ048-049-060>072-079>083-280700-
CENTRAL AND SOUTH CENTRAL VIRGINIA

CITY           SKY/WX    TMP DP  RH WIND       PRES   REMARKS
RICHMOND       LGT RAIN  76  72  87 S5        30.01S
CHESTERFIELD*  CLOUDY    75  63  64 SE5       30.03S
PETERSBURG*    PTCLDY    74  74 100 CALM      30.02F
HANOVER        FOG       69  69 100 CALM      30.03S VSB 3/4
TAPPAHANNOCK*  MOCLDY    71  67  89 CALM      30.02S
QUINTON*       MOCLDY    73  71  92 CALM      30.01S
CHARLOTTSVILLE CLOUDY    72  71  97 CALM      30.03S FOG
GORDONSVILLE*  FAIR      70  70 100 CALM      30.02S
ORANGE*        PTCLDY    72  70  94 CALM      30.04S
LOUISA*        CLOUDY    72  72 100 CALM      30.02S
BUMPASS*       CLOUDY    69  69  98 CALM      30.02S
FARMVILLE*     CLOUDY    75  75 100 CALM      30.01S
CREWE*         MOCLDY   N/A N/A N/A S3        30.02S
FORT PICKETT*  FAIR      73  71  92 S8        30.03R
CHASE CITY*    MOCLDY    78  76  92 S3        30.03S
CLARKSVILLE*   MOCLDY    75  72  88 CALM      30.02S
SOUTH HILL*    MOCLDY    73  70  89 S5        30.08S
LAWRENCEVILLE* FAIR      72  72 100 CALM      30.02S
EMPORIA*       PTCLDY    72  70  94 CALM      30.03S
$$

VAZ088>098-280700-
SOUTHEAST VIRGINIA

CITY           SKY/WX    TMP DP  RH WIND       PRES   REMARKS
NORFOLK        PTCLDY    76  69  79 S5        30.01F
VIRGINIA BEACH MOCLDY    79  69  71 S5        30.01S
NORFOLK NAVAL  MOCLDY    77  69  76 S6        30.02F
WEST POINT*    CLEAR     77  73  85 CALM      30.03S
SALUDA*        FAIR      73  73  99 S3        30.01S
NEWPORT NEWS   PTCLDY    77  71  82 SW8       30.02S
LANGLEY AFB    MOCLDY    78  71  78 SW7       30.01F
FORT EUSTIS    CLEAR     78  78 100 S7        29.99F
WILLIAMSBURG*  CLEAR     81  73  78 S3        30.02F
HR EXEC AP*    FAIR      72  66  83 CALM      30.03F
FRANKLIN*      CLEAR     72  70  95 CALM      30.02F
WAKEFIELD      PTCLDY    74  71  91 CALM      30.02S
$$

VAZ020-022-025-037-045-280700-
WEST CENTRAL AND SOUTHWEST VIRGINIA

CITY           SKY/WX    TMP DP  RH WIND       PRES   REMARKS
STAUNTON*      PTCLDY    71  68  90 CALM      30.07F
WAYNESBORO*    CLOUDY    68  68 100 CALM      30.07S VSB 1/2
HOT SPRINGS VA FOG       67  67 100 S6        30.18R VSB 3/4
LYNCHBURG      LGT RAIN  71  70  96 VRB3      30.06S
DANVILLE       CLOUDY    75  73  93 SE3       30.03R
SOUTH BOSTON*  CLOUDY    72  69  91 SE5       30.02F
MARTINSVILLE   PTCLDY    71  71 100 CALM      30.06S
ROANOKE        PTCLDY    75  70  84 N12       30.07S
BLACKSBURG       N/A     70  69  97 CALM      30.13S
DUBLIN*          N/A     70  70 100 CALM      30.11S FOG
MARION*        PTCLDY    68  67  94 CALM      30.14F
HILLSVILLE*    CLOUDY    70  68  92 S3        30.12S
RICHLANDS*     CLOUDY    71  68  92 CALM      30.11F
WISE*          CLOUDY    72  72 100 CALM      30.12F FOG
ABINGDON*      CLOUDY    71  69  93 CALM      30.09S
$$

MDZ021>025-VAZ099-100-280700-
SOUTHERN MARYLAND AND THE DELMARVA PENINSULA

CITY           SKY/WX    TMP DP  RH WIND       PRES   REMARKS
PATUXENT RIVER MOCLDY    72  69  90 CALM      30.01R
BAY BRIDGE APT   N/A     77  72  83 SW5       30.01S
LEONARDTOWN    CLOUDY    70  68  94 CALM      30.03S
DOVER          PTCLDY    74  74 100 S3        30.00S
GEORGETOWN     MOCLDY    73  71  93 CALM      30.02S
EASTON         CLEAR     75  75 100 S3        30.05S
CAMBRIDGE      CLEAR     73  70  88 CALM      30.01S
SALISBURY      CLEAR     71  71 100 CALM      30.01F
OCEAN CITY     CLOUDY    77  72  84 SW6       30.01F
WALLOPS ISLAND CLOUDY    76  74  93 SW6       30.02S
ACCOMACK*      CLOUDY   N/A N/A N/A S3        30.02S
$$

NCZ012>017-030>032-280700-
NORTH CENTRAL AND EASTERN NORTH CAROLINA

CITY           SKY/WX    TMP DP  RH WIND       PRES   REMARKS
ROANOKE RAPIDS FAIR      70  70 100 CALM      30.02S
RALEIGH        MOCLDY    77  70  79 S3        30.03R
ELIZABETH CITY CLEAR     72  70  93 CALM      30.02F
AHOSKIE*       CLEAR     70  68  93 CALM      30.03S
EDENTON*       CLEAR     75  71  87 CALM      30.02S
CURRITUCK*     CLOUDY    75  70  84 CALM      30.03S
KILL DEVIL HLS CLEAR     73  67  81 CALM      30.01S
MANTEO         CLEAR     72  68  89 CALM      30.03S
CAPE HATTERAS  CLEAR     75  70  84 E3        30.01F
TARBORO*         N/A     71  69  94 CALM      30.03S
GOLDSBORO      CLEAR     73  71  94 SE2       30.00S
WASHINGTON     CLEAR     72  70  94 CALM      30.02S
GREENVILLE     CLEAR     72  72 100 CALM      30.03F
NEW BERN       CLEAR     73  70  90 CALM      30.02F
WILMINGTON     CLEAR     73  71  93 CALM      30.00R
$$

VAZ048-280700-
ELSEWHERE

CITY           SKY/WX    TMP DP  RH WIND       PRES   REMARKS
HARRISBURG PA  PTCLDY    75  71  87 CALM      30.02S
BALTIMORE      PTCLDY    75  73  93 CALM      30.00F
ANNAPOLIS      CLEAR     76  70  82 SW3       30.00F
ANDREWS AFB    CLEAR     73  71  94 SW2       30.01S
PHILADELPHIA   MOCLDY    76  71  85 CALM      30.02S
HENDERSON NC   MOCLDY    74  69  83 S5        30.03S
GREENSBORO     MOCLDY    73  70  90 CALM      30.04S
ROCKY MOUNT    CLEAR     73  71  93 CALM      30.02S
$$

VAZ100-280700-
MARINE

STATION/POSITION TIME  TEMP    WIND        PRES    WAVE   SWELL
                       AIR SEA DIR/SP/G            HT/PER HT/PER
                 (UTC) (F)     (DEG/KT/KT) (MB)    (FT/S) (FT/S)
BRANDYWINE LGT   0500   75 76  190/  6/  7 1016.8R
CAPE MAY NJ      0500   75 80  190/  6/  8 1016.1F
LEWES DE         0500   75 71  160/  3/  3 1016.5R
15NM E FENWICK I 0550   78 78  190/  8/ 10 1016.5F   2/11   2/11
OCEAN-CITY-INLET 0500   76 76  230/  6/  7 1015.6F
WACHAPREAGUE VA  0500   78 82  220/  5/  8 1016.5S
GOOSES REEF MD   0600   78 81  230/  4/  6 1017.2R
COVE POINT MD    0500   75     300/  2/  2 1016.8F
SOLOMONS ISLAND  0500      82                N/A
BISHOPS HEAD MD  0500   80 81  250/  7/  9 1015.4R
POTOMAC MD       0600   79 82  200/  4/  6 1015.0F   1/ 3
CAMBRIDGE MD     0500   77 83  200/  3/  6 1015.4R
LEWISETTA VA     0500   76 82  220/  2/  2 1015.8F
RAPPAHANNOCK LGT 0500          190/ 15/ 17 1016.7S
STINGRAY PT      0500   81 82  200/ 12/ 14 1016.2F   1/ 3
YORK RVR RNG VA  0500   80     210/ 12/ 13 1015.8R
YORKTOWN VA      0500   79 82  200/  6/  9 1015.9F
JAMESTOWN VA     0600   77 84  160/  2/  4   N/A
DOMINION TERM VA 0500   79     190/ 10/ 12 1016.3R
KIPTOPEKE VA     0500      86  200/ 10/ 12   N/A
CHES BAY BRIDGE  0500   79 81  180/  9/ 11 1016.0R
CAPE HENRY VA    0500   77     170/  5/  6   N/A
CHESAPEAKE LGHT  0500   80     190/ 13/ 14 1017.2R
WILLOUBY STN VA  0500   80     220/  9/ 11 1017.4R
CAPE HENRY BUOY  0528      81                N/A     3/11
1ST LANDING BUOY 0600      80              1016.0F   1/ 4
CAPE CHARLES BUO 0526      80                N/A     3/12   2/12
OFFSHORE WE BUOY 0511      80                N/A     3/11   2/11
64NM E OF VA BCH 0550   80 80  190/  6/  8 1016.4F   3/ 6   3/ 6
DUCK PIER NC     0500   78 75  150/  7/  8 1015.8S
44100 DUCK FRF   0524      80                N/A     2/12   2/12
44056 DUCK FRF   0511      80                N/A     2/11   2/11
OREGON INLET NC  0500   77 81  130/  3/  4 1016.6F
HATTERAS NC      0500   80 82  110/  3/  6 1016.3R
CAPE LOOKOUT NC  0600   80     100/  8/ 10 1015.6R
$$



USA.gov is the U.S. government's official web portal to all federal, state and local government web resources and services.